TimeAKDT,TemperatureF,Dew PointF,Humidity,Sea Level PressureIn,VisibilityMPH,Wind Direction,Wind SpeedMPH,Gust SpeedMPH,PrecipitationIn,Events,Conditions,WindDirDegrees,DateUTC
12:54 AM,27.0,18.0,69,30.38,10.0,NNE,3.5,-,N/A,,Partly Cloudy,20,2013-05-19 08:54:00
1:54 AM,24.1,17.1,75,30.40,10.0,Calm,Calm,-,N/A,,Clear,0,2013-05-19 09:54:00
2:54 AM,21.0,16.0,81,30.42,10.0,Calm,Calm,-,N/A,,Clear,0,2013-05-19 10:54:00
3:54 AM,19.9,17.1,89,30.44,10.0,SE,3.5,-,N/A,,Clear,140,2013-05-19 11:54:00
4:54 AM,19.0,17.1,92,30.45,10.0,Calm,Calm,-,N/A,,Clear,0,2013-05-19 12:54:00
5:54 AM,17.1,15.1,92,30.47,10.0,Calm,Calm,-,N/A,,Clear,0,2013-05-19 13:54:00
6:54 AM,21.0,18.0,88,30.48,10.0,Calm,Calm,-,N/A,,Partly Cloudy,0,2013-05-19 14:54:00
7:54 AM,26.1,21.9,84,30.51,10.0,Calm,Calm,-,N/A,,Partly Cloudy,0,2013-05-19 15:54:00
8:54 AM,30.9,21.9,69,30.53,10.0,Calm,Calm,-,N/A,,Partly Cloudy,0,2013-05-19 16:54:00
9:54 AM,37.9,19.0,47,30.54,10.0,Calm,Calm,-,N/A,,Clear,0,2013-05-19 17:54:00
10:54 AM,41.0,18.0,40,30.54,10.0,NNW,4.6,-,N/A,,Scattered Clouds,340,2013-05-19 18:54:00
11:54 AM,42.1,17.1,37,30.55,10.0,West,3.5,-,N/A,,Scattered Clouds,260,2013-05-19 19:54:00
12:54 PM,44.1,17.1,34,30.56,10.0,WNW,5.8,-,N/A,,Scattered Clouds,300,2013-05-19 20:54:00
1:54 PM,45.0,17.1,33,30.55,10.0,Variable,3.5,-,N/A,,Scattered Clouds,0,2013-05-19 21:54:00
2:54 PM,48.9,17.1,28,30.55,10.0,SSW,5.8,-,N/A,,Scattered Clouds,200,2013-05-19 22:54:00
3:54 PM,50.0,17.1,27,30.55,10.0,Variable,4.6,-,N/A,,Scattered Clouds,0,2013-05-19 23:54:00
4:54 PM,50.0,16.0,26,30.55,10.0,South,5.8,-,N/A,,Scattered Clouds,180,2013-05-20 00:54:00
5:54 PM,50.0,23.0,35,30.54,10.0,West,9.2,-,N/A,,Scattered Clouds,280,2013-05-20 01:54:00
6:54 PM,46.9,26.1,44,30.54,10.0,WNW,13.8,-,N/A,,Scattered Clouds,290,2013-05-20 02:54:00
7:54 PM,46.9,26.1,44,30.55,10.0,WNW,9.2,-,N/A,,Scattered Clouds,300,2013-05-20 03:54:00
8:54 PM,43.0,26.1,51,30.55,10.0,WNW,9.2,-,N/A,,Scattered Clouds,290,2013-05-20 04:54:00
9:54 PM,41.0,26.1,55,30.56,10.0,WNW,4.6,-,N/A,,Mostly Cloudy,290,2013-05-20 05:54:00
10:54 PM,37.9,28.0,68,30.57,10.0,Calm,Calm,-,N/A,,Mostly Cloudy,0,2013-05-20 06:54:00
11:54 PM,35.1,28.0,76,30.58,10.0,Calm,Calm,-,N/A,,Mostly Cloudy,0,2013-05-20 07:54:00